Regional Weather Roundup
Issued by NWS Charleston, WV

Home | Current Version | Previous Version | Text Only | Print | Product List | Glossary Off
Versions: 1 2 3 4 5 6 7 8 9 10 11 12 13 14 15 16 17 18 19 20 21 22 23 24 25 26 27 28

000
ASUS41 KRLX 302110
RWRRLX
West Virginia Regional Weather Roundup
National Weather Service Charleston WV
500 PM EDT SAT JUL 30 2016

Note: "fair" indicates few or no clouds below 12,000 feet with no
significant weather and/or obstructions to visibility.

WVZ003-302200-
Northern Panhandle of West Virginia

CITY           SKY/WX    TMP DP  RH WIND       PRES   REMARKS
WHEELING         N/A     83  68  60 SE6       29.93F
$$

WVZ009-302200-
Northwest West Virginia

CITY           SKY/WX    TMP DP  RH WIND       PRES   REMARKS
PARKERSBURG      N/A     84  70  62 W8        29.95F
$$

WVZ006-302200-
Western West Virginia

CITY           SKY/WX    TMP DP  RH WIND       PRES   REMARKS
HUNTINGTON     PTSUNNY   85  69  58 W6        29.94F
$$

WVZ015-302200-
West Central West Virginia

CITY           SKY/WX    TMP DP  RH WIND       PRES   REMARKS
CHARLESTON       N/A     81  69  67 SW7       29.96F
$$

WVZ022-031-302200-
North Central West Virginia

CITY           SKY/WX    TMP DP  RH WIND       PRES   REMARKS
CLARKSBURG     LGT RAIN  79  72  79 CALM      29.95F
MORGANTOWN     HVY RAIN  70  67  90 NE5       29.98S VSB 3/4
$$

WVZ025-035-042-045-302200-
Southern West Virginia

CITY           SKY/WX    TMP DP  RH WIND       PRES   REMARKS
BECKLEY        PTSUNNY   80  67  64 W10       30.05F
LOGAN            N/A     82  70  65 CALM      29.99S
BLUEFIELD        N/A     77  66  68 SW7       30.08F
LEWISBURG        N/A     82  62  51 W8        30.03S
$$

WVZ047-302200-
Northern Mountains of West Virginia

CITY           SKY/WX    TMP DP  RH WIND       PRES   REMARKS
ELKINS         LGT RAIN  75  69  81 CALM      30.01F
$$

WVZ052-302200-
Eastern Panhandle of West Virginia

CITY           SKY/WX    TMP DP  RH WIND       PRES   REMARKS
MARTINSBURG      N/A     82  73  74 SE5       29.90F
PETERSBURG     PTSUNNY   87  69  54 W10       29.91F
$$




USA.gov is the U.S. government's official web portal to all federal, state and local government web resources and services.